Tracking 30260 objects as of 14-Feb-2025
HD Live streaming from Space Station
objects crossing your sky now

CZ-4 DEB

Track CZ-4 DEB now!
10-day predictions


NORAD ID: 27482
Int'l Code: 1990-081CU
Perigee: 854.9 km
Apogee: 867.3 km
Inclination: 98.8 °
Period: 102.0 minutes
Semi major axis: 7232 km
RCS: 0.0048 m2 (small)
Launch date: September 3, 1990
Source: People's Republic of China (PRC)
Launch site: Taiyaun Space Center, China (TSC)

Note: This is SATELLITE DEBRIS
Your satellite tracking list
Your tracking list is empty




NASA's NSSDC Master Catalog

Two Line Element Set (TLE):
1 27482U 90081CU  25044.91049477  .00000875  00000-0  50558-3 0  9993
2 27482  98.8310  28.9569 0008574 246.7787 142.6858 14.11591646239576
Source of the keplerian elements: AFSPC